TimeEDT,TemperatureF,Dew PointF,Humidity,Sea Level PressureIn,VisibilityMPH,Wind Direction,Wind SpeedMPH,Gust SpeedMPH,PrecipitationIn,Events,Conditions,WindDirDegrees,DateUTC
12:53 AM,25.0,12.0,58,30.15,10.0,WNW,6.9,-,N/A,,Clear,290,2013-04-02 04:53:00
1:53 AM,21.9,12.0,66,30.15,10.0,West,4.6,-,N/A,,Clear,280,2013-04-02 05:53:00
2:53 AM,23.0,12.0,63,30.15,10.0,WSW,4.6,-,N/A,,Clear,250,2013-04-02 06:53:00
3:53 AM,23.0,12.0,63,30.15,10.0,WSW,4.6,-,N/A,,Clear,250,2013-04-02 07:53:00
4:53 AM,21.9,12.9,68,30.15,10.0,WSW,4.6,-,N/A,,Clear,250,2013-04-02 08:53:00
5:53 AM,21.0,12.9,71,30.16,10.0,WSW,4.6,-,N/A,,Clear,250,2013-04-02 09:53:00
6:53 AM,21.9,14.0,72,30.18,10.0,WSW,4.6,-,N/A,,Clear,250,2013-04-02 10:53:00
7:53 AM,25.0,17.1,72,30.21,10.0,West,6.9,-,N/A,,Clear,280,2013-04-02 11:53:00
8:53 AM,28.0,19.0,69,30.23,10.0,West,10.4,-,N/A,,Clear,280,2013-04-02 12:53:00
9:53 AM,32.0,10.9,42,30.23,10.0,NW,12.7,-,N/A,,Clear,310,2013-04-02 13:53:00
10:53 AM,35.1,9.0,34,30.24,10.0,West,13.8,19.6,N/A,,Clear,280,2013-04-02 14:53:00
11:53 AM,36.0,10.0,34,30.24,10.0,WNW,15.0,21.9,N/A,,Partly Cloudy,300,2013-04-02 15:53:00
12:53 PM,39.0,10.9,32,30.22,10.0,West,16.1,23.0,N/A,,Mostly Cloudy,270,2013-04-02 16:53:00
1:53 PM,41.0,10.9,29,30.20,10.0,West,16.1,24.2,N/A,,Mostly Cloudy,260,2013-04-02 17:53:00
2:53 PM,41.0,12.0,31,30.20,10.0,West,20.7,25.3,N/A,,Mostly Cloudy,280,2013-04-02 18:53:00
3:53 PM,41.0,12.0,31,30.18,10.0,West,15.0,25.3,N/A,,Overcast,280,2013-04-02 19:53:00
4:53 PM,44.1,12.0,27,30.16,10.0,West,16.1,25.3,N/A,,Mostly Cloudy,280,2013-04-02 20:53:00
5:53 PM,43.0,10.9,27,30.17,10.0,NW,16.1,-,N/A,,Mostly Cloudy,310,2013-04-02 21:53:00
6:53 PM,42.1,10.0,27,30.18,10.0,West,20.7,27.6,N/A,,Overcast,280,2013-04-02 22:53:00
7:53 PM,39.0,10.0,30,30.20,10.0,WNW,17.3,-,N/A,,Partly Cloudy,290,2013-04-02 23:53:00
8:53 PM,37.0,10.0,33,30.22,10.0,WNW,13.8,-,N/A,,Clear,300,2013-04-03 00:53:00
9:53 PM,34.0,10.9,38,30.25,10.0,WNW,12.7,-,N/A,,Clear,300,2013-04-03 01:53:00
10:53 PM,32.0,12.0,44,30.27,10.0,WNW,10.4,-,N/A,,Clear,300,2013-04-03 02:53:00
11:53 PM,28.9,10.9,47,30.27,10.0,NW,9.2,-,N/A,,Clear,310,2013-04-03 03:53:00